Location: Champseau
(45.8333°N, 1.7667°E)
Time: 05:10:40
(UTC+00:00)

Envisat - Pass Details

Date: 01 October 2021
Orbit: 764 x 766 km, 98.2° (Epoch: 23 October)

Event Time Altitude Azimuth Distance (km) Brightness Sun altitude
Rises 05:12:59 0° 12° (NNE) 3,242 6.5 -7.5°
Reaches altitude 10° 05:15:18 10° 13° (NNE) 2,311 5.7 -7.1°
Maximum altitude 05:20:24 86° 285° (WNW) 773 3.0 -6.2°
Drops below altitude 10° 05:25:28 10° 197° (SSW) 2,294 5.3 -5.3°
Sets 05:27:45 0° 197° (SSW) 3,216 6.0 -4.9°
